Time,TemperatureF,DewpointF,PressureIn,WindDirection,WindDirectionDegrees,WindSpeedMPH,WindSpeedGustMPH,Humidity,HourlyPrecipIn,Conditions,Clouds,dailyrainin,SoftwareType,DateUTC
2013-02-19 00:00:00,35.0,6.0,30.14,NW,320,13.0,-999.0,29,-99.99,,,-99.99,,2013-02-19 00:00:00,
2013-02-19 00:41:00,35.0,6.0,30.14,NW,320,13.0,-999.0,29,-99.99,,,-99.99,,2013-02-19 00:41:00,
2013-02-19 00:52:00,35.0,6.0,30.14,NW,320,13.0,-999.0,29,-99.99,,,-99.99,,2013-02-19 00:52:00,
2013-02-19 01:00:00,34.0,6.0,30.15,NW,320,13.0,-999.0,30,-99.99,,,-99.99,,2013-02-19 01:00:00,
2013-02-19 01:31:00,34.0,6.0,30.15,NW,320,13.0,-999.0,30,-99.99,,,-99.99,,2013-02-19 01:31:00,
2013-02-19 01:52:00,34.0,6.0,30.15,NW,320,13.0,-999.0,30,-99.99,,,-99.99,,2013-02-19 01:52:00,
2013-02-19 02:00:00,34.0,7.0,30.17,NW,320,13.0,-999.0,32,-99.99,,,-99.99,,2013-02-19 02:00:00,
2013-02-19 02:21:00,34.0,7.0,30.17,NW,320,13.0,-999.0,32,-99.99,,,-99.99,,2013-02-19 02:21:00,
2013-02-19 02:32:00,34.0,7.0,30.17,NW,320,13.0,-999.0,32,-99.99,,,-99.99,,2013-02-19 02:32:00,
2013-02-19 02:41:00,34.0,7.0,30.17,NW,320,13.0,-999.0,32,-99.99,,,-99.99,,2013-02-19 02:41:00,
2013-02-19 02:52:00,34.0,7.0,30.17,NW,320,13.0,-999.0,32,-99.99,,,-99.99,,2013-02-19 02:52:00,
2013-02-19 03:00:00,34.0,11.0,30.17,NW,320,13.0,-999.0,38,-99.99,,,-99.99,,2013-02-19 03:00:00,
2013-02-19 03:21:00,34.0,11.0,30.17,NW,320,13.0,-999.0,38,-99.99,,,-99.99,,2013-02-19 03:21:00,
2013-02-19 03:31:00,34.0,11.0,30.17,NW,320,13.0,-999.0,38,-99.99,,,-99.99,,2013-02-19 03:31:00,
2013-02-19 03:42:00,34.0,11.0,30.17,NW,320,13.0,-999.0,38,-99.99,,,-99.99,,2013-02-19 03:42:00,
2013-02-19 03:51:00,34.0,11.0,30.17,NW,320,13.0,-999.0,38,-99.99,,,-99.99,,2013-02-19 03:51:00,
2013-02-19 04:00:00,33.0,9.0,30.18,NW,320,13.0,-999.0,35,-99.99,,,-99.99,,2013-02-19 04:00:00,
2013-02-19 04:21:00,33.0,9.0,30.18,NW,320,13.0,-999.0,35,-99.99,,,-99.99,,2013-02-19 04:21:00,
2013-02-19 04:31:00,33.0,9.0,30.18,NW,320,13.0,-999.0,35,-99.99,,,-99.99,,2013-02-19 04:31:00,
2013-02-19 04:41:00,33.0,9.0,30.18,NW,320,13.0,-999.0,35,-99.99,,,-99.99,,2013-02-19 04:41:00,
2013-02-19 04:51:00,33.0,9.0,30.18,NW,320,13.0,-999.0,35,-99.99,,,-99.99,,2013-02-19 04:51:00,
2013-02-19 05:00:00,33.0,11.0,30.19,NW,320,13.0,-999.0,40,-99.99,,,-99.99,,2013-02-19 05:00:00,
2013-02-19 05:12:00,33.0,11.0,30.19,NW,320,13.0,-999.0,40,-99.99,,,-99.99,,2013-02-19 05:12:00,
2013-02-19 05:22:00,33.0,11.0,30.19,NW,320,13.0,-999.0,40,-99.99,,,-99.99,,2013-02-19 05:22:00,
2013-02-19 05:31:00,33.0,11.0,30.19,NW,320,13.0,-999.0,40,-99.99,,,-99.99,,2013-02-19 05:31:00,
2013-02-19 05:42:00,33.0,11.0,30.19,NW,320,13.0,-999.0,40,-99.99,,,-99.99,,2013-02-19 05:42:00,
2013-02-19 05:52:00,33.0,11.0,30.19,NW,320,13.0,-999.0,40,-99.99,,,-99.99,,2013-02-19 05:52:00,
2013-02-19 06:00:00,34.0,17.0,30.19,NW,320,13.0,-999.0,48,-99.99,,,-99.99,,2013-02-19 06:00:00,
2013-02-19 06:21:00,34.0,17.0,30.19,NW,320,13.0,-999.0,48,-99.99,,,-99.99,,2013-02-19 06:21:00,
2013-02-19 06:32:00,34.0,17.0,30.19,NW,320,13.0,-999.0,48,-99.99,,,-99.99,,2013-02-19 06:32:00,
2013-02-19 06:41:00,34.0,17.0,30.19,NW,320,13.0,-999.0,48,-99.99,,,-99.99,,2013-02-19 06:41:00,
2013-02-19 06:51:00,34.0,17.0,30.19,NW,320,13.0,-999.0,48,-99.99,,,-99.99,,2013-02-19 06:51:00,
2013-02-19 07:00:00,34.0,17.0,30.19,NW,320,13.0,-999.0,49,-99.99,,,-99.99,,2013-02-19 07:00:00,
2013-02-19 07:21:00,34.0,17.0,30.19,NW,320,13.0,-999.0,49,-99.99,,,-99.99,,2013-02-19 07:21:00,
2013-02-19 07:31:00,34.0,17.0,30.19,NW,320,13.0,-999.0,49,-99.99,,,-99.99,,2013-02-19 07:31:00,
2013-02-19 07:41:00,34.0,17.0,30.19,NW,320,13.0,-999.0,49,-99.99,,,-99.99,,2013-02-19 07:41:00,
2013-02-19 07:51:00,34.0,17.0,30.19,NW,320,13.0,-999.0,49,-99.99,,,-99.99,,2013-02-19 07:51:00,
2013-02-19 08:00:00,34.0,21.0,30.16,NW,320,13.0,-999.0,59,-99.99,,,-99.99,,2013-02-19 08:00:00,
2013-02-19 08:21:00,34.0,21.0,30.16,NW,320,13.0,-999.0,59,-99.99,,,-99.99,,2013-02-19 08:21:00,
2013-02-19 08:31:00,34.0,21.0,30.16,NW,320,13.0,-999.0,59,-99.99,,,-99.99,,2013-02-19 08:31:00,
2013-02-19 08:41:00,34.0,21.0,30.16,NW,320,13.0,-999.0,59,-99.99,,,-99.99,,2013-02-19 08:41:00,
2013-02-19 08:52:00,34.0,21.0,30.16,NW,320,13.0,-999.0,59,-99.99,,,-99.99,,2013-02-19 08:52:00,
2013-02-19 09:00:00,35.0,25.0,30.14,NW,320,13.0,-999.0,67,-99.99,,,-99.99,,2013-02-19 09:00:00,
2013-02-19 09:11:00,35.0,25.0,30.14,NW,320,13.0,-999.0,67,-99.99,,,-99.99,,2013-02-19 09:11:00,
2013-02-19 09:21:00,35.0,25.0,30.14,NW,320,13.0,-999.0,67,-99.99,,,-99.99,,2013-02-19 09:21:00,
2013-02-19 09:31:00,35.0,25.0,30.14,NW,320,13.0,-999.0,67,-99.99,,,-99.99,,2013-02-19 09:31:00,
2013-02-19 09:41:00,35.0,25.0,30.14,NW,320,13.0,-999.0,67,-99.99,,,-99.99,,2013-02-19 09:41:00,
2013-02-19 09:52:00,35.0,25.0,30.14,NW,320,13.0,-999.0,67,-99.99,,,-99.99,,2013-02-19 09:52:00,
2013-02-19 10:00:00,32.0,25.0,30.16,NW,320,13.0,-999.0,75,-99.99,,,-99.99,,2013-02-19 10:00:00,
2013-02-19 10:11:00,32.0,25.0,30.16,NW,320,13.0,-999.0,75,-99.99,,,-99.99,,2013-02-19 10:11:00,
2013-02-19 10:21:00,32.0,25.0,30.16,NW,320,13.0,-999.0,75,-99.99,,,-99.99,,2013-02-19 10:21:00,
2013-02-19 10:31:00,32.0,25.0,30.16,NW,320,13.0,-999.0,75,-99.99,,,-99.99,,2013-02-19 10:31:00,
2013-02-19 10:41:00,32.0,25.0,30.16,NW,320,13.0,-999.0,75,-99.99,,,-99.99,,2013-02-19 10:41:00,
2013-02-19 10:51:00,32.0,25.0,30.16,NW,320,13.0,-999.0,75,-99.99,,,-99.99,,2013-02-19 10:51:00,
2013-02-19 11:00:00,32.0,26.0,30.14,NW,320,13.0,-999.0,77,-99.99,,,-99.99,,2013-02-19 11:00:00,
2013-02-19 11:11:00,32.0,26.0,30.14,NW,320,13.0,-999.0,77,-99.99,,,-99.99,,2013-02-19 11:11:00,
2013-02-19 11:21:00,32.0,26.0,30.14,NW,320,13.0,-999.0,77,-99.99,,,-99.99,,2013-02-19 11:21:00,
2013-02-19 11:31:00,32.0,26.0,30.14,NW,320,13.0,-999.0,77,-99.99,,,-99.99,,2013-02-19 11:31:00,
2013-02-19 11:41:00,32.0,26.0,30.14,NW,320,13.0,-999.0,77,-99.99,,,-99.99,,2013-02-19 11:41:00,
2013-02-19 11:51:00,32.0,26.0,30.14,NW,320,13.0,-999.0,77,-99.99,,,-99.99,,2013-02-19 11:51:00,
2013-02-19 12:00:00,33.0,26.0,30.13,NW,320,13.0,-999.0,74,-99.99,,,-99.99,,2013-02-19 12:00:00,
2013-02-19 12:12:00,33.0,26.0,30.13,NW,320,13.0,-999.0,74,-99.99,,,-99.99,,2013-02-19 12:12:00,
2013-02-19 12:21:00,33.0,26.0,30.13,NW,320,13.0,-999.0,74,-99.99,,,-99.99,,2013-02-19 12:21:00,
2013-02-19 12:32:00,33.0,26.0,30.13,NW,320,13.0,-999.0,74,-99.99,,,-99.99,,2013-02-19 12:32:00,
2013-02-19 12:41:00,33.0,26.0,30.13,NW,320,13.0,-999.0,74,-99.99,,,-99.99,,2013-02-19 12:41:00,
2013-02-19 12:52:00,33.0,26.0,30.13,NW,320,13.0,-999.0,74,-99.99,,,-99.99,,2013-02-19 12:52:00,
2013-02-19 13:00:00,35.0,28.0,30.11,NW,320,13.0,-999.0,73,-99.99,,,-99.99,,2013-02-19 13:00:00,
2013-02-19 13:21:00,35.0,28.0,30.11,NW,320,13.0,-999.0,73,-99.99,,,-99.99,,2013-02-19 13:21:00,
2013-02-19 13:31:00,35.0,28.0,30.11,NW,320,13.0,-999.0,73,-99.99,,,-99.99,,2013-02-19 13:31:00,
2013-02-19 13:41:00,35.0,28.0,30.11,NW,320,13.0,-999.0,73,-99.99,,,-99.99,,2013-02-19 13:41:00,
2013-02-19 13:52:00,35.0,28.0,30.11,NW,320,13.0,-999.0,73,-99.99,,,-99.99,,2013-02-19 13:52:00,
2013-02-19 14:00:00,40.0,29.0,30.10,NW,320,13.0,-999.0,66,-99.99,,,-99.99,,2013-02-19 14:00:00,
2013-02-19 14:11:00,40.0,29.0,30.10,NW,320,13.0,-999.0,66,-99.99,,,-99.99,,2013-02-19 14:11:00,
2013-02-19 14:21:00,40.0,29.0,30.10,NW,320,13.0,-999.0,66,-99.99,,,-99.99,,2013-02-19 14:21:00,
2013-02-19 14:32:00,40.0,29.0,30.10,NW,320,13.0,-999.0,66,-99.99,,,-99.99,,2013-02-19 14:32:00,
2013-02-19 14:41:00,40.0,29.0,30.10,NW,320,13.0,-999.0,66,-99.99,,,-99.99,,2013-02-19 14:41:00,
2013-02-19 14:52:00,40.0,29.0,30.10,NW,320,13.0,-999.0,66,-99.99,,,-99.99,,2013-02-19 14:52:00,
2013-02-19 19:00:00,48.0,43.0,29.96,South,180,17.0,-999.0,82,-99.99,,,-99.99,,2013-02-19 19:00:00,
2013-02-19 19:11:00,48.0,43.0,29.96,South,180,17.0,-999.0,82,-99.99,,,-99.99,,2013-02-19 19:11:00,
2013-02-19 19:21:00,48.0,43.0,29.96,South,180,17.0,-999.0,82,-99.99,,,-99.99,,2013-02-19 19:21:00,
2013-02-19 19:31:00,48.0,43.0,29.96,South,180,17.0,-999.0,82,-99.99,,,-99.99,,2013-02-19 19:31:00,
2013-02-19 19:41:00,48.0,43.0,29.96,South,180,17.0,-999.0,82,-99.99,,,-99.99,,2013-02-19 19:41:00,
2013-02-19 19:51:00,48.0,43.0,29.96,South,180,17.0,-999.0,82,-99.99,,,-99.99,,2013-02-19 19:51:00,
2013-02-19 20:00:00,47.0,45.0,29.91,South,180,13.0,-999.0,91,-99.99,,,-99.99,,2013-02-19 20:00:00,
2013-02-19 20:21:00,47.0,45.0,29.91,South,180,13.0,-999.0,91,-99.99,,,-99.99,,2013-02-19 20:21:00,
2013-02-19 20:31:00,47.0,45.0,29.91,South,180,13.0,-999.0,91,-99.99,,,-99.99,,2013-02-19 20:31:00,
2013-02-19 20:41:00,47.0,45.0,29.91,South,180,13.0,-999.0,91,-99.99,,,-99.99,,2013-02-19 20:41:00,
2013-02-19 20:52:00,47.0,45.0,29.91,South,180,13.0,-999.0,91,-99.99,,,-99.99,,2013-02-19 20:52:00,
2013-02-19 21:00:00,47.0,45.0,29.88,South,180,16.0,-999.0,93,-99.99,,,-99.99,,2013-02-19 21:00:00,
2013-02-19 21:21:00,47.0,45.0,29.88,South,180,16.0,-999.0,93,-99.99,,,-99.99,,2013-02-19 21:21:00,
2013-02-19 21:31:00,47.0,45.0,29.88,South,180,16.0,-999.0,93,-99.99,,,-99.99,,2013-02-19 21:31:00,
2013-02-19 21:42:00,47.0,45.0,29.88,South,180,16.0,-999.0,93,-99.99,,,-99.99,,2013-02-19 21:42:00,
2013-02-19 21:51:00,47.0,45.0,29.88,South,180,16.0,-999.0,93,-99.99,,,-99.99,,2013-02-19 21:51:00,
2013-02-19 22:00:00,46.0,45.0,29.83,South,180,13.0,-999.0,95,-99.99,,,-99.99,,2013-02-19 22:00:00,
2013-02-19 22:21:00,46.0,45.0,29.83,South,180,13.0,-999.0,95,-99.99,,,-99.99,,2013-02-19 22:21:00,
2013-02-19 22:31:00,46.0,45.0,29.83,South,180,13.0,-999.0,95,-99.99,,,-99.99,,2013-02-19 22:31:00,
2013-02-19 22:41:00,46.0,45.0,29.83,South,180,13.0,-999.0,95,-99.99,,,-99.99,,2013-02-19 22:41:00,
2013-02-19 22:51:00,46.0,45.0,29.83,South,180,13.0,-999.0,95,-99.99,,,-99.99,,2013-02-19 22:51:00,
2013-02-19 23:00:00,47.0,47.0,29.77,South,180,16.0,-999.0,99,-99.99,,,-99.99,,2013-02-19 23:00:00,
2013-02-19 23:21:00,47.0,47.0,29.77,South,180,16.0,-999.0,99,-99.99,,,-99.99,,2013-02-19 23:21:00,
2013-02-19 23:31:00,47.0,47.0,29.77,South,180,16.0,-999.0,99,-99.99,,,-99.99,,2013-02-19 23:31:00,
2013-02-19 23:41:00,47.0,47.0,29.77,South,180,16.0,-999.0,99,-99.99,,,-99.99,,2013-02-19 23:41:00,
2013-02-19 23:51:00,47.0,47.0,29.77,South,180,16.0,-999.0,99,-99.99,,,-99.99,,2013-02-19 23:51:00,